Zurück zum Katalog

STARLINK-34816

AktivKommunikationVLEO
NORAD 65467·PAYLOAD·🇺🇸 United States

Gestartet Sep 3, 2025 von Cape Canaveral Space Force Station

Loading…

Nächste Überflüge (nächste 24 Stunden)

TLE

AktuellSource: CelesTrak SupGP

Epoche: Sep 14, 2026, 14:52 UTC

1 65467C 25195K   26257.61993056 -.00005477  00000+0 -17608-3 0  2577
2 65467  53.1580 100.2957 0001315  97.6080 286.1114 15.31712224    18

Verfolge STARLINK-34816 in Echtzeit mit AllMySat

Download on the App Store